Location: *
(46.1200°N, 11.2700°E)
Time: 12:40:02
(UTC+00:00)

CZ-4B R/B - Pass Details

Date: 02 March 2021
Orbit: 388 x 454 km, 97.6° (Epoch: 18 April)

Event Time Altitude Azimuth Distance (km) Brightness Sun altitude
Rises 17:47:19 0° 8° (N) 2,292 4.9 -8.5°
Reaches altitude 10° 17:49:19 10° 3° (N) 1,433 3.9 -8.8°
Maximum altitude 17:52:17 50° 286° (WNW) 508 2.1 -9.4°
Drops below altitude 10° 17:55:15 10° 210° (SSW) 1,436 4.4 -9.9°
Sets 17:57:15 0° 205° (SSW) 2,297 5.3 -10.2°
